Anderson, CA

10:16 PM PDT on September 27, 2016 (GMT -0700)
Redding Municipal

Weather History for KRDD - February, 2013

Change the Weather History Date:

Tuesday, February 5, 2013

  Actual Average Record
Temperature  
Mean Temperature 48 °F -  
Max Temperature 59 °F 58 °F 76 °F (2011)
Min Temperature 36 °F 38 °F 21 °F (1989)
Degree Days  
Heating Degree Days 17    
Cooling Degree Days 0    
Moisture  
Dew Point 39 °F    
Average Humidity 75    
Maximum Humidity 92    
Minimum Humidity 57    
Precipitation  
Precipitation 0.00 in 0.21 in 0.95 in (1998)
Month to date precipitation 0.00 1.01  
Year to date precipitation 0.93 6.97  
Since 1 July precipitation 20.09 20.73  
Sea Level Pressure  
Sea Level Pressure 30.06 in    
Wind  
Wind Speed 2 mph (South)    
Max Wind Speed 10 mph    
Max Gust Speed 14 mph    
Visibility 9 miles    
Events      
T = Trace of Precipitation, MM = Missing Value Source: NWS Daily Summary

Daily Weather History Graph

Daily Weather History Graph

Search for Another Location

Airport or City:

Trip Planner

Search our weather history database for the weather conditions in past years. The results will help you decide how hot, cold, wet, or windy it might be!

Date:

Astronomy

Feb. 05, 2013 Rise Set
Actual Time 7:14 AM PST 5:32 PM PST
Civil Twilight 6:45 AM PST 6:01 PM PST
Nautical Twilight 6:13 AM PST 6:33 PM PST
Astronomical Twilight 5:41 AM PST 7:05 PM PST
Moon 3:02 AM PST (2/5) 12:55 PM PST (2/5)
Length of Visible Light 11h 15m
Length of Day
10h 18m
Waning Crescent, 25% of the Moon is Illuminated
Feb 5
Waning Crescent
Feb 9
New
Feb 17
First Quarter
Feb 25
Full
Mar 4
Last Quarter

Hourly Weather History & Observations

Time (PST) Temp. Windchill Dew Point Humidity Pressure Visibility Wind Dir Wind Speed Gust Speed Precip Events Conditions
12:53 AM 39.0 °F 36.8 °F 35.1 °F 86% 30.06 in 10.0 mi NW 3.5 mph - N/A   Clear
1:53 AM 37.9 °F - 35.1 °F 89% 30.05 in 9.0 mi Calm Calm - N/A   Clear
2:53 AM 37.9 °F - 35.1 °F 89% 30.04 in 7.0 mi Calm Calm - N/A   Clear
3:53 AM 37.0 °F - 34.0 °F 89% 30.04 in 7.0 mi Calm Calm - N/A   Clear
4:53 AM 37.0 °F 34.5 °F 35.1 °F 93% 30.03 in 8.0 mi West 3.5 mph - N/A   Scattered Clouds
5:53 AM 37.9 °F 34.4 °F 35.1 °F 89% 30.03 in 6.0 mi ESE 4.6 mph - N/A   Mostly Cloudy
6:53 AM 39.0 °F - 35.1 °F 86% 30.05 in 10.0 mi Calm Calm - N/A   Mostly Cloudy
7:53 AM 41.0 °F - 36.0 °F 82% 30.06 in 10.0 mi Calm Calm - N/A   Overcast
8:53 AM 43.0 °F - 37.9 °F 82% 30.07 in 9.0 mi Calm Calm - N/A   Overcast
9:17 AM 44.6 °F 43.1 °F 39.2 °F 81% 30.07 in 9.0 mi West 3.5 mph - N/A   Overcast
9:53 AM 48.0 °F - 39.9 °F 74% 30.07 in 10.0 mi Calm Calm - N/A   Overcast
10:53 AM 50.0 °F - 39.9 °F 68% 30.08 in 10.0 mi Calm Calm - N/A   Overcast
11:26 AM 51.8 °F - 41.0 °F 67% 30.07 in 10.0 mi Calm Calm - N/A   Scattered Clouds
11:53 AM 53.1 °F - 41.0 °F 64% 30.05 in 10.0 mi South 4.6 mph - N/A   Clear
12:53 PM 55.0 °F - 43.0 °F 64% 30.03 in 10.0 mi SSE 4.6 mph - N/A   Clear
1:53 PM 57.0 °F - 44.1 °F 62% 30.01 in 10.0 mi SSE 4.6 mph - N/A   Clear
2:53 PM 57.0 °F - 43.0 °F 59% 30.01 in 10.0 mi SSW 6.9 mph - N/A   Partly Cloudy
3:53 PM 57.9 °F - 44.1 °F 60% 30.01 in 10.0 mi South 8.1 mph - N/A   Clear
4:53 PM 57.0 °F - 44.1 °F 62% 30.02 in 10.0 mi SW 4.6 mph - N/A   Partly Cloudy
5:53 PM 54.0 °F - 43.0 °F 66% 30.04 in 10.0 mi SE 3.5 mph - N/A   Mostly Cloudy
6:53 PM 52.0 °F - 42.1 °F 69% 30.06 in 9.0 mi Calm Calm - N/A   Scattered Clouds
7:53 PM 50.0 °F - 41.0 °F 71% 30.07 in 10.0 mi East 3.5 mph - N/A   Clear
8:53 PM 46.0 °F - 39.0 °F 76% 30.09 in 10.0 mi Calm Calm - N/A   Clear
9:53 PM 44.1 °F - 35.1 °F 71% 30.11 in 10.0 mi Calm Calm - N/A   Clear
10:53 PM 39.2 °F - 35.6 °F 87% 30.13 in 10.0 mi Calm Calm - N/A   Clear
11:53 PM 37.9 °F - 33.1 °F 83% 30.15 in 10.0 mi Calm Calm - N/A   Clear